Temperature
18 18 17 17 17 17 17 17 17 17 17 17 17 17 17 18 18 18 19 19 19 18 18 18 18 18 18 18 18 18 18 18 18 18 18 18 18 17 17 17 17 17 17
17 17 17 17 17 17 17 17 17 16 16 16 17 16 17 17 17 18 18 18 18 18 18 18 18 18 18 18 18 18 18 18 18 18 18 18 18 17 17 17 17 17 17
17 17 17 17 17 17 17 16 16 16 16 16 16 16 16 16 16 17 18 18 17 17 18 17 17 18 18 18 18 18 18 18 18 18 17 17 17 17 17 17 17 17 17
16 16 16 16 16 16 16 16 16 16 16 16 16 16 16 16 16 16 17 17 17 17 17 17 17 17 18 18 18 18 18 18 18 18 17 17 17 17 17 17 17 17 17
16 16 16 16 15 15 15 15 15 15 15 15 15 15 15 15 15 16 16 16 17 17 17 17 17 17 17 17 17 18 18 18 18 17 17 17 17 17 17 17 17 17 17
15 15 15 15 15 15 15 15 15 15 15 15 15 15 15 15 15 16 16 16 16 17 17 17 17 17 17 17 17 17 18 18 18 17 17 17 17 17 17 17 17 17 17
14 14 14 14 14 14 14 14 14 14 14 14 14 14 15 15 15 15 16 16 16 17 17 17 17 17 17 17 17 17 17 17 17 17 17 17 17 17 17 17 17 17 17
13 13 13 13 14 14 14 14 14 14 14 14 14 14 14 15 15 15 16 16 17 17 16 17 17 17 17 17 17 17 17 17 17 17 17 17 17 17 17 17 16 16 16
13 13 13 13 13 13 13 13 13 13 13 13 13 13 14 14 15 15 16 16 16 17 17 17 17 17 17 17 17 17 17 17 17 17 17 17 17 17 17 17 17 16 16
13 13 13 13 13 13 13 13 13 13 13 13 13 13 13 14 14 15 16 16 16 16 17 17 17 17 17 17 17 17 17 17 17 17 17 17 17 17 17 17 17 16 16
12 12 12 12 12 12 12 12 12 13 13 13 13 13 13 13 14 14 15 16 16 16 17 17 17 17 17 17 17 17 17 17 17 17 17 17 17 17 17 17 16 16 16
12 12 12 12 12 12 12 12 12 12 12 12 12 13 13 13 13 14 14 15 16 16 17 17 17 17 17 17 17 17 17 17 17 17 17 17 17 16 16 16 16 16 16
11 11 11 11 11 11 11 11 11 11 12 12 12 12 12 13 13 13 13 14 15 16 16 17 17 17 17 17 17 17 17 17 17 17 17 17 16 16 16 16 16 16 16
10 10 10 10 11 11 11 11 11 11 11 11 12 12 12 12 12 13 13 13 14 15 16 16 17 17 17 17 17 17 17 17 17 17 16 16 16 16 16 16 16 16 16
10 10 10 10 10 10 10 10 10 10 11 11 11 11 11 12 12 12 13 13 13 14 15 16 17 17 17 17 17 17 17 17 17 16 16 16 16 16 16 16 16 16 16
9 9 9 9 9 10 10 10 10 10 10 10 10 11 11 11 11 12 12 12 13 13 14 15 16 16 17 17 17 17 16 16 16 16 16 16 16 16 16 16 16 16 16
9 9 9 9 9 9 9 9 9 10 10 10 10 10 10 11 11 11 11 12 12 13 13 15 15 16 16 16 16 16 16 16 16 16 16 16 16 16 16 16 16 16 16
8 8 8 8 8 8 9 9 9 9 9 9 10 10 10 10 10 11 11 11 11 12 13 14 15 15 15 16 16 16 16 16 16 16 16 16 16 16 16 16 16 16 16
8 8 8 8 8 8 8 8 8 8 9 9 9 9 10 10 10 10 10 11 11 11 12 13 13 14 15 15 15 15 16 16 16 16 16 16 16 16 16 16 16 16 16
8 8 8 8 8 8 8 8 8 8 8 8 9 9 9 9 10 10 10 10 11 11 11 12 12 13 14 14 15 15 15 15 15 15 15 15 15 15 15 16 16 16 16
8 8 8 8 7 7 7 8 7 7 8 8 8 8 9 9 9 10 10 10 10 10 11 11 12 12 13 13 14 14 14 14 14 14 14 14 15 15 15 15 15 15 16
8 8 8 8 8 7 7 7 7 7 7 7 7 8 8 8 9 9 9 10 10 10 10 10 11 11 12 13 14 14 14 13 13 13 13 13 13 13 14 14 15 15 15
8 8 8 8 8 8 8 7 7 7 7 7 7 7 8 8 8 9 9 9 10 10 10 10 10 11 12 12 13 13 14 14 14 13 12 12 12 12 12 13 14 14 14
8 8 8 8 8 8 8 7 7 7 6 7 7 7 7 8 8 8 9 9 9 10 10 10 10 11 11 12 13 14 14 13 13 12 12 12 11 11 12 12 12 13 13
8 8 8 8 8 8 7 7 7 6 6 6 7 7 7 7 8 8 8 9 9 9 9 10 10 10 11 11 11 12 12 13 12 12 11 12 11 11 11 11 11 12 12
8 8 8 8 8 7 7 7 7 6 6 6 6 6 7 7 7 8 8 8 9 9 9 9 10 10 10 11 11 12 12 13 12 11 11 11 11 11 11 11 11 11 12
Wind_Speed
2 2 3 4 5 6 5 5 6 8 9 10 13 12 11 14 15 15 15 19 20 24 28 29 28 27 27 27 26 26 25 25 24 23 23 21 20 20 19 19 19 19 18
0 1 2 3 3 4 5 5 5 7 8 8 11 12 12 13 15 16 15 17 20 23 26 28 28 27 27 26 26 26 26 26 25 25 24 23 22 22 21 20 20 20 19
2 1 2 3 3 4 4 3 4 4 6 8 10 12 11 11 11 13 14 15 17 21 26 28 28 27 27 27 27 27 27 27 26 26 26 25 24 24 23 22 21 21 21
3 2 2 3 4 4 2 3 3 4 5 6 6 8 9 8 10 11 12 14 14 16 22 28 29 29 28 28 28 28 28 27 27 27 27 27 26 25 25 24 23 23 22
2 2 1 2 3 2 3 4 3 3 4 5 6 6 7 8 9 11 10 11 14 16 17 23 29 30 30 29 29 29 28 28 28 28 28 27 27 27 26 26 25 24 24
1 1 1 2 2 2 3 3 4 4 4 5 6 6 6 7 7 9 11 10 12 16 18 19 20 25 31 31 29 29 29 29 28 28 29 28 28 27 27 27 26 25 25
3 2 2 3 2 2 3 4 3 4 4 3 3 4 5 6 8 9 9 9 11 13 16 18 19 19 19 27 30 29 29 29 29 29 29 29 29 28 27 27 27 27 26
5 4 4 4 3 2 3 3 2 3 3 2 2 2 3 3 5 9 8 10 11 9 12 16 17 18 18 17 21 28 29 29 29 29 29 29 29 28 28 28 27 27 27
8 6 5 5 4 3 3 3 3 2 3 3 2 2 2 3 3 4 7 9 9 9 11 9 13 17 19 17 17 23 28 28 29 29 28 29 28 28 28 27 27 27 28
7 7 5 4 4 3 4 4 2 2 2 3 3 3 3 3 2 3 3 5 7 8 10 11 12 12 17 16 18 20 25 28 29 28 28 28 28 28 27 27 27 27 27
6 6 5 4 4 3 4 4 3 3 2 3 3 2 3 3 3 3 3 3 3 5 7 9 9 9 14 16 16 19 23 25 27 28 28 27 27 27 27 27 27 27 27
5 7 6 4 4 4 5 5 5 4 4 3 3 3 2 3 2 2 3 3 3 4 6 7 8 9 9 13 18 20 22 24 25 26 26 26 26 26 26 26 26 26 27
4 6 6 4 4 4 5 5 5 5 5 4 4 3 3 4 3 2 3 3 3 3 3 4 6 7 8 11 14 20 21 22 23 24 25 25 25 25 26 26 26 26 26
5 6 6 5 6 6 6 5 5 6 5 5 6 5 4 4 3 3 2 2 3 3 2 4 2 5 5 8 13 17 15 19 20 21 21 23 24 24 25 25 25 25 25
5 6 6 6 7 6 6 6 5 7 6 6 6 6 5 4 4 3 3 3 3 3 3 4 2 2 3 4 10 11 10 15 17 18 18 19 20 21 22 23 24 24 24
6 7 7 7 7 7 7 6 6 7 7 7 6 7 6 5 4 4 3 3 4 3 3 3 3 2 3 5 7 9 9 12 13 14 15 16 17 19 20 21 22 22 22
7 7 8 8 8 8 8 7 7 7 7 8 8 8 8 7 5 4 4 3 4 3 5 4 2 1 2 6 6 7 8 8 7 9 11 12 14 15 17 18 19 20 20
8 8 8 8 9 9 8 8 9 9 8 8 8 8 9 8 7 6 4 4 4 4 4 5 3 1 2 7 8 8 6 6 6 7 8 9 11 12 13 14 15 16 17
8 8 8 9 9 9 9 9 9 9 9 9 9 9 9 8 8 6 6 6 4 4 4 4 3 2 1 5 7 7 7 6 6 8 9 9 9 10 11 11 13 14 14
8 9 9 9 9 10 10 10 10 10 10 10 9 9 9 9 10 9 7 7 6 5 4 4 4 3 3 5 6 7 6 4 4 5 7 9 11 11 10 11 11 12 13
9 8 9 9 9 9 10 10 10 11 9 10 9 9 9 12 14 11 8 8 7 5 5 5 4 4 5 7 7 5 7 6 4 3 5 4 6 6 7 9 11 13 14
9 9 9 10 10 10 13 15 12 9 9 9 9 9 9 11 14 16 16 14 12 8 7 6 5 6 8 7 7 8 9 7 4 4 4 4 4 5 4 6 10 13 15
9 9 10 10 11 12 16 17 18 12 10 10 10 9 11 11 10 8 12 15 15 15 12 8 7 8 7 8 10 11 10 9 5 8 5 4 3 4 4 7 11 13 15
9 9 10 10 10 13 16 16 18 13 10 11 11 11 10 10 10 8 8 8 9 9 11 8 7 8 7 7 11 11 11 8 6 6 5 4 3 3 3 6 9 12 14
9 9 9 10 10 12 15 16 15 8 8 10 11 11 11 10 13 13 9 8 8 7 9 10 10 9 9 9 9 9 11 11 8 5 3 4 4 3 3 3 6 10 12
10 10 10 10 10 11 14 15 13 6 8 8 8 9 13 13 13 14 10 9 9 8 7 7 7 8 8 10 14 12 12 13 9 5 5 5 5 5 4 2 2 5 9
Wind_Direction
244 263 269 273 269 256 242 236 230 232 231 229 228 227 227 228 228 228 232 236 229 217 209 205 204 203 202 200 200 200 200 199 197 195 194 193 191 190 189 187 185 184 183
193 294 301 297 286 272 255 243 239 238 238 235 233 228 228 229 232 229 230 235 230 219 212 208 206 206 208 207 205 204 204 203 201 199 197 196 196 195 194 193 191 189 189
72 16 325 314 305 299 283 264 256 248 246 242 239 234 230 229 232 231 228 229 229 224 216 211 209 210 211 211 211 209 207 206 204 201 200 199 199 198 197 197 196 195 194
60 46 358 323 311 304 289 274 258 252 253 248 242 237 232 230 235 235 230 228 224 224 221 218 215 214 215 214 215 214 210 208 206 203 202 201 201 201 201 200 199 199 199
63 57 357 315 322 314 300 292 281 260 263 260 253 240 230 232 236 239 235 230 225 221 222 224 222 219 219 219 218 216 213 210 208 206 205 205 204 203 203 203 203 202 202
338 23 298 301 310 305 298 288 284 279 263 262 266 260 240 233 230 231 234 231 226 224 223 225 225 225 222 222 220 219 216 213 209 208 207 207 207 205 205 205 205 204 204
298 288 287 292 296 285 284 286 281 285 278 266 271 275 253 234 233 234 229 226 227 226 224 223 221 221 224 224 221 220 219 216 212 210 209 209 208 207 206 207 207 206 206
299 289 268 265 267 272 295 297 279 283 280 271 261 277 274 255 239 237 231 228 227 223 222 223 220 219 220 217 220 221 221 220 216 213 211 209 208 207 207 207 208 208 208
300 289 271 259 247 233 254 269 264 269 281 286 258 242 250 251 268 247 231 230 223 218 221 217 217 217 216 214 215 218 219 219 219 217 213 210 208 208 207 208 208 209 210
311 307 291 274 249 233 240 256 252 244 265 284 291 265 253 257 259 291 276 236 227 220 220 222 220 214 214 213 213 212 214 216 218 217 214 211 208 208 208 209 210 211 211
323 327 316 295 267 249 249 253 258 255 241 252 264 279 282 268 242 245 284 293 266 235 225 219 216 210 209 208 208 212 211 212 215 216 215 212 209 208 209 211 213 213 213
318 323 324 320 298 276 261 257 254 257 254 254 255 252 256 272 274 254 264 283 273 259 236 222 216 211 207 206 210 210 209 210 212 213 213 211 209 208 209 211 214 216 215
301 303 316 316 308 287 274 263 262 262 254 254 254 250 245 247 257 258 255 270 271 274 265 235 219 208 205 199 205 205 207 206 208 209 209 208 207 208 208 210 214 216 217
272 281 293 297 299 297 291 273 263 263 257 251 256 255 253 254 249 245 248 261 284 283 271 257 234 208 200 190 196 194 200 201 202 204 205 206 206 206 205 207 210 213 216
277 285 289 294 295 295 292 286 268 263 261 254 251 250 248 251 250 247 241 233 239 259 270 267 260 214 182 171 176 177 176 187 191 195 199 202 204 205 204 206 209 212 215
279 287 287 286 287 287 285 281 276 268 260 257 250 247 247 244 246 247 245 240 228 227 252 265 253 235 167 158 153 149 153 161 174 184 192 198 202 204 205 207 209 212 214
273 274 275 277 279 280 280 278 275 276 267 263 260 249 245 238 234 236 234 236 238 222 248 270 273 268 144 148 132 121 121 121 136 164 179 190 197 201 204 207 209 211 212
266 265 267 268 270 274 271 269 272 277 269 265 260 253 249 245 233 229 224 227 231 228 232 257 279 241 173 159 143 131 118 112 109 129 155 171 182 188 193 197 200 201 202
264 265 263 262 264 267 267 265 262 262 260 258 254 249 246 238 234 228 220 223 226 234 228 239 257 250 177 150 136 120 112 106 100 106 115 130 147 161 171 179 184 186 187
264 264 261 257 257 259 261 263 263 262 260 258 253 246 242 232 228 224 221 219 217 218 221 231 240 238 190 157 144 141 132 117 110 103 97 103 112 118 132 148 159 164 165
274 266 264 261 257 258 261 258 255 260 259 260 259 252 248 243 235 223 216 209 204 209 212 216 224 224 198 171 164 151 146 134 99 109 110 96 96 92 95 115 132 142 145
275 272 267 264 263 268 267 263 259 256 253 253 256 255 257 259 249 233 223 211 197 198 206 212 215 220 209 182 163 156 151 153 149 150 124 99 88 87 70 83 123 134 138
277 276 271 265 263 261 260 260 260 255 246 245 246 247 258 257 244 231 229 225 215 208 200 198 211 217 211 189 171 168 169 165 149 153 131 104 80 79 61 85 116 127 132
278 276 276 271 268 270 264 258 258 255 245 241 239 237 237 244 246 227 220 217 213 212 210 206 209 214 211 197 185 176 163 135 105 130 121 115 100 80 66 71 101 120 128
284 279 277 275 272 274 271 265 261 251 243 241 240 238 233 232 235 226 213 210 211 221 220 213 214 217 206 195 175 160 157 155 152 154 123 119 125 104 75 59 82 111 125
282 285 284 279 273 275 277 274 266 244 242 244 242 239 238 232 229 220 208 200 205 212 201 200 211 221 209 194 181 180 174 170 158 154 153 127 136 132 112 76 69 99 114
Height
1530 1530 1529 1529 1528 1527 1526 1527 1526 1527 1527 1527 1528 1529 1531 1533 1535 1537 1539 1541 1543 1544 1546 1549 1551 1553 1556 1557 1559 1562 1564 1566 1568 1570 1573 1575 1577 1579 1581 1583 1585 1587 1589
1527 1527 1526 1524 1523 1522 1521 1521 1521 1521 1520 1521 1521 1522 1523 1526 1528 1530 1533 1535 1537 1539 1541 1543 1545 1548 1551 1553 1555 1558 1560 1562 1565 1567 1569 1572 1574 1577 1579 1581 1583 1585 1587
1524 1523 1522 1521 1519 1518 1517 1516 1515 1514 1514 1514 1514 1514 1515 1517 1520 1523 1526 1528 1530 1533 1535 1537 1539 1542 1545 1548 1550 1553 1556 1558 1561 1563 1566 1569 1571 1574 1576 1579 1581 1583 1585
1521 1520 1518 1517 1515 1514 1512 1511 1510 1509 1508 1507 1506 1506 1507 1509 1511 1515 1518 1521 1523 1526 1528 1531 1533 1536 1539 1542 1544 1547 1550 1553 1556 1559 1562 1565 1568 1570 1573 1576 1578 1581 1583
1518 1516 1514 1513 1511 1509 1508 1507 1505 1504 1502 1501 1500 1499 1499 1501 1503 1507 1510 1513 1516 1519 1521 1524 1527 1530 1532 1535 1538 1541 1544 1548 1551 1554 1557 1560 1564 1567 1570 1572 1575 1578 1580
1515 1513 1511 1510 1508 1506 1504 1503 1501 1500 1498 1496 1495 1493 1493 1494 1496 1499 1502 1505 1508 1511 1514 1517 1520 1523 1526 1529 1532 1535 1538 1541 1545 1548 1552 1555 1559 1562 1565 1568 1571 1574 1577
1512 1510 1508 1507 1505 1503 1501 1499 1497 1496 1494 1493 1491 1489 1487 1488 1489 1492 1495 1498 1501 1504 1507 1510 1513 1516 1519 1522 1525 1528 1532 1535 1539 1542 1546 1550 1554 1557 1561 1564 1567 1570 1573
1508 1507 1505 1503 1502 1500 1498 1497 1494 1493 1491 1490 1489 1487 1484 1484 1484 1486 1488 1490 1493 1497 1500 1503 1506 1509 1511 1515 1517 1521 1525 1529 1532 1536 1540 1544 1548 1552 1556 1559 1563 1566 1569
1504 1503 1501 1500 1498 1497 1496 1494 1492 1490 1489 1487 1486 1486 1483 1481 1481 1481 1482 1484 1487 1490 1493 1496 1499 1502 1505 1508 1511 1514 1518 1522 1526 1530 1534 1538 1543 1547 1551 1554 1558 1561 1564
1500 1498 1497 1496 1495 1494 1493 1491 1490 1488 1487 1485 1484 1483 1483 1481 1480 1479 1479 1480 1482 1484 1487 1490 1493 1496 1499 1501 1504 1508 1512 1516 1520 1524 1528 1532 1537 1541 1545 1549 1553 1556 1559
1496 1495 1493 1492 1491 1490 1489 1488 1487 1486 1484 1483 1482 1481 1479 1479 1479 1478 1477 1477 1478 1479 1482 1484 1487 1490 1493 1496 1499 1503 1506 1510 1514 1518 1522 1527 1531 1535 1539 1543 1547 1551 1554
1492 1491 1489 1488 1487 1486 1485 1484 1483 1482 1481 1480 1479 1478 1477 1477 1476 1476 1475 1474 1475 1476 1478 1480 1482 1485 1488 1490 1494 1497 1501 1505 1509 1513 1517 1521 1525 1529 1534 1537 1541 1545 1549
1487 1486 1485 1483 1482 1481 1481 1480 1479 1478 1477 1476 1475 1475 1474 1474 1474 1474 1473 1473 1473 1473 1474 1476 1478 1480 1483 1486 1489 1493 1497 1500 1504 1508 1512 1516 1520 1524 1528 1532 1536 1539 1543
1483 1481 1480 1479 1477 1476 1476 1475 1474 1473 1473 1472 1471 1471 1470 1470 1470 1470 1471 1471 1470 1471 1471 1472 1474 1476 1479 1482 1485 1489 1492 1496 1500 1503 1507 1511 1515 1518 1522 1526 1530 1534 1538
1478 1477 1475 1474 1472 1471 1470 1469 1468 1467 1467 1467 1467 1466 1466 1466 1466 1466 1467 1468 1469 1468 1468 1469 1471 1473 1475 1478 1481 1485 1488 1492 1495 1499 1503 1506 1510 1513 1517 1521 1525 1529 1533
1474 1472 1470 1468 1467 1465 1464 1463 1462 1461 1461 1461 1461 1461 1461 1461 1462 1462 1462 1463 1464 1466 1465 1465 1467 1470 1472 1474 1478 1481 1484 1488 1491 1494 1498 1501 1505 1509 1513 1516 1520 1524 1528
1470 1467 1465 1463 1461 1460 1458 1457 1456 1455 1454 1454 1455 1455 1456 1457 1457 1457 1458 1458 1459 1461 1461 1462 1464 1466 1468 1471 1474 1477 1480 1483 1486 1490 1493 1497 1500 1504 1508 1512 1516 1519 1523
1465 1462 1460 1457 1455 1454 1452 1451 1450 1449 1448 1447 1448 1449 1449 1451 1451 1452 1453 1454 1455 1456 1457 1458 1460 1462 1465 1468 1470 1474 1477 1480 1482 1485 1489 1492 1496 1499 1503 1507 1511 1515 1519
1459 1457 1454 1452 1449 1448 1446 1445 1443 1442 1441 1440 1441 1442 1443 1444 1445 1447 1448 1449 1450 1451 1452 1453 1455 1458 1461 1464 1466 1470 1473 1476 1478 1481 1484 1488 1491 1495 1499 1503 1507 1511 1515
1453 1450 1448 1445 1443 1441 1439 1438 1437 1435 1434 1433 1433 1434 1435 1437 1439 1441 1442 1444 1445 1446 1447 1449 1451 1454 1457 1460 1462 1465 1469 1472 1475 1478 1481 1484 1488 1492 1496 1500 1503 1507 1511
1447 1444 1441 1439 1437 1434 1432 1431 1429 1428 1427 1426 1426 1427 1428 1429 1431 1434 1436 1438 1440 1441 1443 1444 1446 1449 1452 1454 1458 1461 1465 1469 1472 1475 1478 1482 1485 1489 1492 1496 1500 1504 1508
1440 1438 1435 1432 1429 1427 1425 1424 1422 1421 1420 1419 1418 1419 1420 1422 1424 1427 1429 1432 1434 1436 1438 1439 1440 1443 1446 1450 1453 1457 1461 1465 1469 1473 1476 1480 1483 1486 1490 1494 1497 1501 1505
1434 1431 1428 1425 1422 1420 1418 1416 1414 1413 1411 1410 1410 1410 1412 1414 1416 1419 1422 1425 1427 1430 1432 1434 1435 1437 1441 1444 1448 1452 1457 1461 1465 1469 1474 1477 1481 1484 1488 1491 1495 1498 1502
1428 1425 1422 1418 1415 1412 1410 1407 1406 1404 1402 1402 1402 1402 1403 1405 1409 1412 1415 1418 1420 1423 1426 1428 1430 1433 1436 1439 1443 1447 1452 1458 1463 1468 1472 1475 1478 1482 1486 1489 1492 1496 1499
1423 1419 1416 1412 1408 1405 1403 1400 1397 1395 1394 1393 1393 1394 1395 1397 1400 1404 1407 1410 1414 1417 1420 1422 1425 1427 1429 1433 1437 1442 1447 1453 1458 1463 1468 1471 1475 1480 1484 1487 1490 1494 1497
1417 1414 1410 1406 1403 1399 1396 1393 1390 1387 1386 1385 1385 1386 1387 1389 1392 1396 1400 1403 1407 1410 1414 1417 1419 1421 1423 1427 1431 1436 1441 1446 1452 1458 1462 1467 1472 1476 1481 1485 1488 1491 1495